Other Public Products
Issued by NWS Charleston, SC

Current Version | Previous Version | Graphics & Text | Print | Product List | Glossary On
Versions: 1 2 3 4 5 6 7 8 9 10 11 12 13 14 15 16 17 18 19 20 21 22 23 24 25 26 27 28 29 30 31 32 33 34 35 36 37 38 39 40 41 42 43 44 45 46 47 48 49 50
000
FPUS82 KCHS 281912
OPUCHS

TEST...KCHS/KSAV Gateway Observations...TEST
National Weather Service Charleston SC
300 PM EDT SUN MAY 28 2017

NOTE: "fair" indicates few or no clouds below 12,000 feet with no
significant weather and/or obstructions to visibility.

SCZ050-WAZ558-NCZ071-TXZ119-213-PAZ071-DCZ001-FLZ074-172-MI076-
NYZ176-178-MAZ016-IL014-TNZ027-NJZ106-GAZ044-MD014-282000-

...Gateway Observations for Charleston International...

CITY           SKY/WX    TMP DP  RH WIND       PRES   REMARKS
Chas Airport   PTSUNNY   89  70  53 W17       29.89F HX  94
Seattle        MOSUNNY   73  53  49 W8        30.10F
Charlotte      PTSUNNY   83  64  52 SW9       29.85F
Dallas DFW     CLOUDY    74  70  87 NE7       29.99R
Dallas Love    CLOUDY    74  68  81 N8        29.99R
Philladelphia  PTSUNNY   76  60  57 SE10      29.88F
Wash National  LGT RAIN  67  65  93 NE9       29.87F
Baltimore      RAIN      67  66  97 SE7       29.88R FOG
Miami          MOSUNNY   95  62  33 VRB6      30.02F HX  96
Detroit        PTSUNNY   77  64  64 SE7       29.70F
Newark         PTSUNNY   70  57  63 E9        29.93F
Laguardia      CLOUDY    69  54  58 S9G18     29.93F
J F K          CLOUDY    67  58  72 SE10      29.95F
Boston Logan   CLOUDY    57  52  83 E12       29.99S
Ft. Lauderdale MOSUNNY   94  65  38 W10       30.00F HX  96
Chicago O`Hare PTSUNNY   74  58  57 W16       29.73S
Chicago Midway LGT RAIN  69  59  70 NE10      29.73R
Houston Bush   CLOUDY    90  75  61 SE16      29.92F HX 100
Houston Hobby  CLOUDY    89  76  65 SE15G22   29.93F HX 100
Nashville      PTSUNNY   78  61  55 W12G17    29.90F
Atlanta        PTSUNNY   84  67  56 SW15G23   29.92F

$$

GAZ044-118-TXZ119-213-NCZ071-DCZ001-MDZ014-506-PAZ021-071-NJZ106-
NYZ176-178-MAZ106-OHZ011-021-055-MIZ076-KYZ091-ILZ014-INZ047-
MNZ060-ONZ431-282000-

...Gateway Observations for Savannah International...

CITY           SKY/WX    TMP DP  RH WIND       PRES   REMARKS
Savannah Arpt  CLOUDY    96  68  39 W15       29.92F HX 101
Atlanta        PTSUNNY   84  67  56 SW15G23   29.92F
Charlotte      PTSUNNY   83  64  52 SW9       29.85F
Dallas DFW     CLOUDY    74  70  87 NE7       29.99R
Houston Bush   CLOUDY    90  75  61 SE16      29.92F HX 100
Wash National  LGT RAIN  67  65  93 NE9       29.87F
Wash Dulles    LGT RAIN  66  63  90 E9        29.86F FOG
Baltimore      RAIN      67  66  97 SE7       29.88R FOG
Philadelphia   PTSUNNY   76  60  57 SE10      29.88F
Newark         PTSUNNY   70  57  63 E9        29.93F
Laguardia      CLOUDY    69  54  58 S9G18     29.93F
J F K          CLOUDY    67  58  72 SE10      29.95F
Boston         CLOUDY    57  52  83 E12       29.99S
Pittsburg      CLOUDY    73  66  78 VRB7      29.77F
Akron          PTSUNNY   76  65  68 SW8       29.75F
Cleveland      CLOUDY    77  66  68 S12       29.73F
Cincinnati     CLOUDY    73  62  68 W10       29.80S
Columbus       PTSUNNY   77  64  63 SW14G20   29.75F
Detroit        PTSUNNY   77  64  64 SE7       29.70F
Chicago O`Hare PTSUNNY   74  58  57 W16       29.73S
Minneapolis    CLOUDY    70  45  40 W15G24    29.73F
Indianapolis   CLOUDY    75  61  61 W16       29.75F
Toronto Canada PTSUNNY   70  54  56 E13       29.78F

$$




USA.gov is the U.S. government's official web portal to all federal, state and local government web resources and services.